Date_and_time,latitude,longitude,wind_speed,RelWindDirFrom,WindDirFrom,air_pressure,air_temperature,relative_humidity,Temp,platform_speed_wrt_ground,air_pressure_at_mean_sea_level,platform_orientation
2018-07-21 23:30,50.6304533333333,-96.98077,1.2,3.7,182,993.14,26.2,38,23.69,0.0,1018.79,66.4
2018-07-21 23:40,50.6304516666667,-96.98077,2.0,3.3,83,992.88,26.6,39,23.81,0.0,1018.50,66.4
2018-07-21 23:50,50.6304483333333,-96.9807683333333,2.2,3.5,48,992.72,26.2,41,23.72,0.0,1018.34,66.4
2018-07-22 00:00,50.6304016666667,-96.9807666666667,3.5,4.7,51,992.60,25.5,44,23.70,0.0,1018.24,166.0
2018-07-22 00:10,50.6304716666667,-96.9807883333333,4.9,5.9,49,992.40,25.3,45,23.64,0.0,1018.03,166.0
2018-07-22 00:20,50.6304483333333,-96.9807616666667,4.6,5.6,36,992.39,25.2,46,23.52,0.0,1018.03,166.0
2018-07-22 00:30,50.6304466666667,-96.9807633333333,4.7,5.6,20,992.62,25.1,45,23.48,0.0,1018.25,166.0
2018-07-22 00:40,50.6304466666667,-96.9807633333333,4.4,5.4,22,992.68,24.8,47,23.44,0.0,1018.30,166.0
2018-07-22 00:50,50.630445,-96.9807583333333,3.8,5.0,16,992.71,24.7,47,23.51,0.0,1018.32,166.0
2018-07-22 01:00,50.6304433333333,-96.9807583333333,3.4,4.1,25,992.69,24.7,47,23.64,0.0,1018.28,167.4
2018-07-22 01:10,50.6304433333333,-96.98076,3.5,4.4,24,992.63,24.9,47,23.70,0.0,1018.20,167.4
2018-07-22 01:20,50.6304466666667,-96.9807533333333,2.9,4.1,13,992.87,24.8,47,23.81,0.0,1018.46,167.4
2018-07-22 01:30,50.6304483333333,-96.9807533333333,1.8,3.0,330,993.14,24.6,46,23.83,0.0,1018.72,167.4
2018-07-22 01:40,50.63046,-96.9807316666667,1.9,2.7,333,993.16,24.4,48,23.90,0.0,1018.77,167.4
2018-07-22 01:50,50.6304533333333,-96.9807533333333,1.8,3.0,344,993.15,24.2,49,23.98,0.0,1018.80,167.4
2018-07-22 02:00,50.6304516666667,-96.9807466666667,2.1,2.9,346,993.13,24.0,51,24.02,0.0,1018.79,131.7
2018-07-22 02:10,50.6304516666667,-96.9807483333333,1.1,2.4,3,993.21,23.9,52,24.14,0.0,1018.89,131.7
2018-07-22 02:20,50.6304516666667,-96.9807516666667,0.4,1.4,263,993.51,23.7,53,24.22,0.0,1019.21,131.7
2018-07-22 02:30,50.63045,-96.980755,0.5,1.3,203,993.53,23.4,56,24.21,0.0,1019.26,131.7
2018-07-22 02:40,50.6304483333333,-96.9807566666667,0.3,1.1,53,993.52,23.4,58,24.21,0.0,1019.25,131.7
2018-07-22 02:50,50.6304466666667,-96.9807733333333,1.2,2.4,97,993.34,23.7,58,24.19,0.0,1019.05,131.7
2018-07-22 03:00,50.6304466666667,-96.9807516666667,4.2,5.8,78,993.09,24.0,55,24.13,0.0,1018.78,17.8
2018-07-22 03:10,50.6304383333333,-96.9807483333333,4.5,6.1,83,993.12,24.3,53,24.08,0.0,1018.80,17.8
2018-07-22 03:20,50.63044,-96.980755,4.8,6.6,97,993.11,24.3,53,24.15,0.0,1018.79,17.8
2018-07-22 03:30,50.6304483333333,-96.980765,6.5,8.9,107,992.85,24.3,54,24.13,0.0,1018.54,17.8
2018-07-22 03:40,50.6304466666667,-96.9807683333333,8.7,11.3,105,992.74,24.3,55,24.10,0.0,1018.43,17.8
2018-07-22 03:50,50.630445,-96.9807633333333,10.5,14.2,113,992.69,24.2,55,24.17,0.0,1018.39,17.8
2018-07-22 04:00,50.630445,-96.9807583333333,12.2,15.7,129,992.84,24.0,56,24.09,0.0,1018.56,0.0
2018-07-22 04:10,50.630445,-96.98076,13.7,17.7,138,993.12,23.4,59,24.11,0.0,1018.89,0.0
2018-07-22 04:20,50.630445,-96.9807583333333,13.7,17.0,150,993.03,22.9,61,24.22,0.0,1018.83,0.0
2018-07-22 04:30,50.630445,-96.9807583333333,13.7,15.7,146,993.00,22.6,62,24.26,0.0,1018.80,0.0
2018-07-22 04:40,50.630445,-96.98076,12.7,15.7,145,992.95,22.5,65,24.29,0.0,1018.75,0.0
2018-07-22 04:50,50.6304466666667,-96.9807616666667,14.3,16.9,146,992.80,22.3,66,24.28,0.0,1018.59,0.0
2018-07-22 05:00,50.6304466666667,-96.98076,15.1,17.5,149,992.90,22.1,66,24.24,0.0,1018.69,234.7
2018-07-22 05:10,50.630445,-96.9807616666667,14.3,17.4,146,992.81,22.0,68,24.23,0.0,1018.60,234.7
2018-07-22 05:20,50.6304433333333,-96.9807616666667,15.3,17.8,146,992.70,21.9,66,24.19,0.0,1018.49,234.7
2018-07-22 05:30,50.6304483333333,-96.980745,14.5,18.6,143,992.80,22.0,68,24.16,0.0,1018.59,234.7
2018-07-22 05:40,50.6304616666667,-96.9807383333333,15.5,19.7,146,992.91,21.9,67,24.16,0.0,1018.71,234.7
2018-07-22 05:50,50.6304516666667,-96.980755,13.1,17.1,138,992.83,22.0,69,24.15,0.0,1018.63,234.7
2018-07-22 06:00,50.6304516666667,-96.9807533333333,14.6,19.3,137,992.73,21.9,68,24.15,0.0,1018.57,360.0
2018-07-22 06:10,50.6304483333333,-96.980755,14.7,18.4,132,992.68,22.1,69,24.13,0.0,1018.53,360.0
2018-07-22 06:20,50.63045,-96.9807583333333,14.3,20.1,136,992.73,21.8,69,24.12,0.0,1018.60,360.0
2018-07-22 06:30,50.63045,-96.98076,13.7,18.0,134,992.70,21.8,71,24.10,0.0,1018.58,360.0
2018-07-22 06:40,50.6304516666667,-96.9807616666667,13.6,18.7,133,992.73,21.8,71,24.08,0.0,1018.62,360.0
2018-07-22 06:50,50.63045,-96.9807616666667,14.0,18.4,131,992.75,21.7,73,24.06,0.0,1018.65,360.0
2018-07-22 07:00,50.6304483333333,-96.9807633333333,14.4,19.6,136,992.72,21.3,73,24.02,0.0,1018.64,347.4
2018-07-22 07:10,50.6304483333333,-96.9807633333333,14.0,18.6,135,992.53,21.2,74,23.98,0.0,1018.45,347.4
2018-07-22 07:20,50.6304416666667,-96.9807616666667,15.2,19.2,133,992.42,21.2,75,23.97,0.0,1018.33,347.4
2018-07-22 07:30,50.6304383333333,-96.98076,15.3,19.4,140,992.46,20.8,76,23.97,0.0,1018.41,347.4
2018-07-22 07:40,50.63044,-96.9807583333333,14.9,18.2,140,992.51,20.7,77,23.95,0.0,1018.46,347.4
2018-07-22 07:50,50.6304416666667,-96.98076,14.1,18.4,139,992.65,20.6,78,23.91,0.0,1018.61,347.4
2018-07-22 08:00,50.6304416666667,-96.9807616666667,14.2,17.9,135,992.67,20.7,79,23.88,0.0,1018.61,360.0
2018-07-22 08:10,50.6304416666667,-96.9807616666667,14.0,18.7,137,992.54,20.6,78,23.87,0.0,1018.50,360.0
2018-07-22 08:20,50.6304466666667,-96.9807666666667,13.3,17.3,133,992.57,20.6,79,23.86,0.0,1018.52,360.0
2018-07-22 08:30,50.6304466666667,-96.98077,14.5,18.3,139,992.61,20.3,79,23.85,0.0,1018.58,360.0
2018-07-22 08:40,50.630445,-96.9807666666667,14.2,18.4,137,992.58,20.3,79,23.83,0.0,1018.55,360.0
2018-07-22 08:50,50.630445,-96.9807666666667,15.3,19.6,141,992.50,20.1,79,23.81,0.0,1018.50,360.0
2018-07-22 09:00,50.630445,-96.9807666666667,16.4,19.1,144,992.41,19.9,79,23.80,0.0,1018.42,192.6
2018-07-22 09:10,50.6304466666667,-96.9807666666667,15.2,18.3,142,992.40,19.8,81,23.78,0.0,1018.41,192.6
2018-07-22 09:20,50.6304466666667,-96.9807666666667,14.0,17.9,137,992.27,20.0,82,23.77,0.0,1018.29,192.6
2018-07-22 09:30,50.6304483333333,-96.9807683333333,14.5,19.2,139,992.19,19.9,82,23.75,0.0,1018.22,192.6
2018-07-22 09:40,50.6304466666667,-96.9807666666667,14.5,19.4,130,992.00,20.2,83,23.73,0.0,1018.01,192.6
2018-07-22 09:50,50.6304433333333,-96.9807633333333,15.2,18.8,138,992.12,19.7,84,23.72,0.0,1018.15,192.6
2018-07-22 10:00,50.630445,-96.9807616666667,16.2,19.2,146,992.22,19.5,84,23.71,0.0,1018.28,167.4
2018-07-22 10:10,50.6304433333333,-96.9807616666667,14.3,18.0,143,992.33,19.7,86,23.70,0.0,1018.37,167.4
2018-07-22 10:20,50.6304416666667,-96.9807716666667,13.5,18.6,132,992.35,19.9,86,23.69,0.0,1018.40,167.4
2018-07-22 10:30,50.63046,-96.9807716666667,14.7,18.2,140,992.43,19.5,87,23.69,0.0,1018.50,167.4
2018-07-22 10:40,50.6304516666667,-96.9807666666667,14.5,18.7,136,992.61,19.6,87,23.69,0.0,1018.69,167.4
2018-07-22 10:50,50.6304483333333,-96.9807683333333,14.0,18.1,136,992.72,19.6,88,23.68,0.0,1018.81,167.4
2018-07-22 11:00,50.630445,-96.9807666666667,14.1,17.6,134,992.63,19.8,89,23.67,0.0,1018.72,270.0
2018-07-22 11:10,50.6304316666667,-96.9807516666667,14.5,18.6,133,992.57,19.8,89,23.67,0.0,1018.65,270.0
2018-07-22 11:20,50.6304433333333,-96.9807666666667,14.9,19.6,135,992.52,19.7,90,23.66,0.0,1018.60,270.0
2018-07-22 11:30,50.6304433333333,-96.9807666666667,14.6,19.4,130,992.32,19.8,90,23.65,0.0,1018.38,270.0
2018-07-22 11:40,50.6304433333333,-96.98077,15.8,21.1,138,992.39,19.5,89,23.64,0.0,1018.48,270.0
2018-07-22 11:50,50.6304483333333,-96.9807733333333,17.1,20.6,140,992.38,19.3,89,23.62,0.0,1018.49,270.0
2018-07-22 12:00,50.630445,-96.9807733333333,17.2,20.7,142,992.39,19.2,90,23.61,0.0,1018.49,270.0
2018-07-22 12:10,50.6304466666667,-96.98078,16.9,21.3,138,992.35,19.2,91,23.59,0.0,1018.45,270.0
2018-07-22 12:20,50.630445,-96.9807766666667,16.0,21.2,137,992.32,19.3,91,23.57,0.0,1018.43,270.0
2018-07-22 12:30,50.630445,-96.9807766666667,16.9,20.9,142,992.30,19.2,91,23.55,0.0,1018.41,270.0
2018-07-22 12:40,50.6304416666667,-96.9807716666667,18.0,22.1,144,992.27,19.0,91,23.55,0.0,1018.39,270.0
2018-07-22 12:50,50.6304383333333,-96.9807716666667,16.8,20.5,143,992.17,19.1,92,23.53,0.0,1018.27,270.0
2018-07-22 13:00,50.6304416666667,-96.98076,18.1,21.0,143,991.96,19.0,91,23.52,0.0,1018.06,0.0
2018-07-22 13:10,50.6304416666667,-96.9807616666667,16.2,19.2,145,991.85,18.9,92,23.51,0.0,1017.96,0.0
2018-07-22 13:20,50.63044,-96.98076,17.0,19.8,148,991.65,18.9,92,23.50,0.0,1017.75,0.0
2018-07-22 13:30,50.63044,-96.9807633333333,16.4,20.1,145,991.53,19.0,92,23.49,0.0,1017.64,0.0
2018-07-22 13:40,50.63044,-96.9807633333333,16.6,20.5,143,991.35,19.0,92,23.48,0.0,1017.46,0.0
2018-07-22 13:50,50.63044,-96.9807666666667,15.7,19.6,140,991.25,19.1,92,23.47,0.0,1017.35,0.0
2018-07-22 14:00,50.6304383333333,-96.9807683333333,15.1,18.5,132,991.04,19.6,92,23.47,0.0,1017.11,90.0
2018-07-22 14:10,50.63044,-96.98077,15.1,19.5,131,990.85,19.8,90,23.47,0.0,1016.90,90.0
2018-07-22 14:20,50.6304383333333,-96.98077,15.6,19.0,129,990.74,20.1,90,23.46,0.0,1016.79,90.0
2018-07-22 14:30,50.63044,-96.98077,15.2,19.3,136,990.74,19.9,89,23.46,0.0,1016.80,90.0
2018-07-22 14:40,50.63044,-96.98077,14.8,19.1,134,990.78,20.1,88,23.45,0.0,1016.83,90.0
2018-07-22 14:50,50.63044,-96.9807683333333,15.3,19.4,139,990.75,19.9,87,23.45,0.0,1016.81,90.0
2018-07-22 15:00,50.63044,-96.9807683333333,13.7,17.5,131,990.69,20.3,87,23.45,0.0,1016.74,90.0
2018-07-22 15:10,50.6304416666667,-96.9807683333333,13.8,17.3,130,990.62,20.7,85,23.45,0.0,1016.65,90.0
2018-07-22 15:20,50.63044,-96.9807683333333,12.6,16.1,141,990.83,20.4,84,23.46,0.0,1016.88,90.0
2018-07-22 15:30,50.63043,-96.9807583333333,12.3,15.9,138,990.77,20.7,83,23.45,0.0,1016.80,90.0
2018-07-22 15:40,50.6304416666667,-96.9807633333333,12.2,14.7,134,990.56,21.1,82,23.45,0.0,1016.56,90.0
2018-07-22 15:50,50.6304433333333,-96.98076,12.5,16.1,131,990.32,21.6,80,23.46,0.0,1016.27,90.0
2018-07-22 16:00,50.630445,-96.98076,14.8,17.2,125,990.11,22.0,80,23.47,0.0,1016.02,0.0
2018-07-22 16:10,50.630445,-96.98076,14.6,18.0,127,989.98,22.1,79,23.47,0.0,1015.87,0.0
2018-07-22 16:20,50.630445,-96.98076,14.5,18.0,125,990.03,22.3,78,23.48,0.0,1015.93,0.0
2018-07-22 16:30,50.630445,-96.9807616666667,14.4,18.0,126,990.12,22.3,77,23.49,0.0,1016.01,0.0
2018-07-22 16:40,50.630445,-96.9807783333333,13.8,17.4,135,990.24,22.1,77,23.50,0.0,1016.15,0.0
2018-07-22 16:50,50.6304516666667,-96.9807733333333,13.8,17.1,138,990.28,22.0,75,23.52,0.0,1016.17,0.0
2018-07-22 17:00,50.6304483333333,-96.9807683333333,12.4,15.8,133,990.17,22.4,76,23.52,0.0,1016.03,38.0
2018-07-22 17:10,50.630445,-96.9807716666667,10.6,14.4,129,990.06,22.7,76,23.52,0.0,1015.92,38.0
2018-07-22 17:20,50.6304416666667,-96.9807683333333,12.0,14.4,128,989.97,23.0,75,23.52,0.0,1015.80,38.0
2018-07-22 17:30,50.6304383333333,-96.9807666666667,12.8,15.7,126,989.90,23.1,76,23.52,0.0,1015.70,38.0
2018-07-22 17:40,50.6304366666667,-96.9807666666667,13.7,16.2,123,989.79,23.3,76,23.53,0.0,1015.56,38.0
2018-07-22 17:50,50.6304366666667,-96.9807666666667,13.5,16.6,126,989.77,23.4,75,23.54,0.0,1015.52,38.0
2018-07-22 18:00,50.6304366666667,-96.980765,11.4,14.5,130,989.75,23.4,75,23.55,0.0,1015.49,360.0
2018-07-22 18:10,50.6304383333333,-96.980765,10.2,14.4,131,989.80,23.6,75,23.56,0.0,1015.53,360.0
2018-07-22 18:20,50.6304383333333,-96.980765,10.7,14.2,144,989.78,23.1,75,23.57,0.0,1015.52,360.0
2018-07-22 18:30,50.630445,-96.9807666666667,12.5,16.1,145,989.51,23.3,72,23.58,0.0,1015.25,360.0
2018-07-22 18:40,50.6304416666667,-96.9807783333333,11.8,16.1,139,989.29,23.8,70,23.59,0.0,1015.01,360.0
2018-07-22 18:50,50.63044,-96.9807683333333,12.3,15.1,118,989.12,24.0,75,23.59,0.0,1014.81,360.0
2018-07-22 19:00,50.6304366666667,-96.98076,12.4,14.8,121,989.12,23.8,76,23.60,0.0,1014.80,142.0
2018-07-22 19:10,50.6304366666667,-96.9807616666667,12.3,16.2,129,988.87,23.8,73,23.62,0.0,1014.54,142.0
2018-07-22 19:20,50.6304366666667,-96.98076,12.6,16.3,132,988.75,23.9,72,23.63,0.0,1014.40,142.0
2018-07-22 19:30,50.6304366666667,-96.98076,12.6,16.4,133,988.45,23.9,73,23.63,0.0,1014.09,142.0
2018-07-22 19:40,50.6304416666667,-96.980775,12.8,17.0,132,988.06,24.1,71,23.64,0.0,1013.68,142.0
2018-07-22 19:50,50.63045,-96.9807716666667,14.3,19.9,125,987.74,24.3,71,23.65,0.0,1013.34,142.0
2018-07-22 20:00,50.630435,-96.980775,13.2,16.1,116,987.70,24.0,78,23.65,0.0,1013.31,194.5
2018-07-22 20:10,50.6304633333333,-96.9807833333333,10.7,13.8,136,988.39,23.7,75,23.65,0.0,1014.04,194.5
2018-07-22 20:20,50.6304533333333,-96.9807733333333,10.5,12.8,145,988.65,23.5,74,23.65,0.0,1014.30,194.5
2018-07-22 20:30,50.6304516666667,-96.9807716666667,9.3,11.5,142,988.62,23.6,74,23.65,0.0,1014.25,194.5
2018-07-22 20:40,50.63042,-96.980775,8.6,13.1,157,988.80,23.7,73,23.65,0.0,1014.43,194.5
2018-07-22 20:50,50.6304283333333,-96.9807833333333,10.5,13.9,164,988.89,24.3,65,23.65,0.0,1014.50,194.5
2018-07-22 21:00,50.63047,-96.9808,9.8,12.4,176,989.03,24.5,62,23.66,0.0,1014.64,338.7
2018-07-22 21:10,50.6304416666667,-96.9807666666667,7.0,9.5,184,989.07,24.5,63,23.66,0.0,1014.67,338.7
2018-07-22 21:20,50.63042,-96.9807516666667,5.0,6.6,183,988.93,24.4,63,23.66,0.0,1014.53,338.7
2018-07-22 21:30,50.6304266666667,-96.98076,5.4,10.9,222,989.02,24.2,66,23.66,0.0,1014.62,338.7
2018-07-22 21:40,50.6304316666667,-96.9807583333333,10.1,20.4,199,989.43,22.2,81,23.67,0.0,1015.12,338.7
2018-07-22 21:50,50.6304333333333,-96.9807616666667,2.6,7.1,196,989.29,21.0,90,23.66,0.0,1015.05,338.7
2018-07-22 22:00,50.6304216666667,-96.9807783333333,1.2,3.3,216,989.22,21.0,91,23.65,0.0,1014.98,228.4
2018-07-22 22:10,50.6304266666667,-96.9807783333333,5.5,10.7,150,988.97,20.9,96,23.65,0.0,1014.74,228.4
2018-07-22 22:20,50.6304083333333,-96.9807716666667,10.0,13.9,106,987.42,21.2,93,23.65,0.0,1013.14,228.4
2018-07-22 22:30,50.63043,-96.9807716666667,10.0,12.7,118,987.28,21.4,91,23.64,0.0,1012.98,228.4
2018-07-22 22:40,50.630435,-96.98077,11.3,12.9,124,987.30,21.8,99,23.64,0.0,1012.96,228.4
2018-07-22 22:50,50.630425,-96.9807566666667,11.4,14.1,130,987.01,22.0,97,23.64,0.0,1012.64,228.4
2018-07-22 23:00,50.6304366666667,-96.9807666666667,11.2,14.2,147,987.17,21.5,97,23.64,0.0,1012.83,90.0
2018-07-22 23:10,50.6304333333333,-96.9807716666667,10.3,13.3,158,987.27,21.6,98,23.64,0.0,1012.93,90.0
2018-07-22 23:20,50.6304316666667,-96.9807766666667,11.1,14.1,169,987.33,21.9,95,23.64,0.0,1012.99,90.0
2018-07-22 23:30,50.6304316666667,-96.9807766666667,9.3,12.0,179,987.43,22.3,91,23.63,0.0,1013.16,90.0
2018-07-22 23:40,50.6304316666667,-96.9807783333333,10.7,14.0,182,987.38,22.4,88,23.63,0.0,1013.16,90.0
